UAE5AM NZAA-OMDB

Flight info

Callsign UAE5AM
Flight time N/A
Altitude 28000
Route OSRAP2P UPLAR A464 RIGMI/N0493F300 A464 SCOTT/N0494F320 A464 UNVAT DCT 2456S14730E 23S143E 22S141E 21S139E 19S136E 18S134E 17S132E 16S130E/N0497F340 DCT SUNPO DCT ONOXA G326 BLI M766 RIMTI/N0490F360 M766 GODAV/N0484F380 M766 KAT P570 TEGOR/N0486F400 P570 ITURA M762 VAXAS/N0457F240 M762 MIVEK P574 IMPED IMPED3C
Aircraft B77L/H-SADE1E2E3GHIJ1J3J5M1P2RWXY/LB1

Departure

Time N/A
Airport Auckland International Airport (NZAA)

Arrival

Time 2026-04-26 07:29
Airport Dubai International Airport (OMDB)
Time Latitude Longitude Altitude Speed Heading
2026-04-26 04:45 12.40715 71.34656 37902 ft 492 kts 301°
2026-04-26 04:45 12.42745 71.31838 37900 ft 492 kts 301°
2026-04-26 04:46 12.46808 71.26198 37910 ft 492 kts 301°
2026-04-26 04:46 12.50873 71.20559 37906 ft 492 kts 301°
2026-04-26 04:47 12.54935 71.14927 37905 ft 492 kts 301°
2026-04-26 04:47 12.58966 71.09332 37904 ft 491 kts 301°
2026-04-26 04:48 12.65042 71.00886 37904 ft 491 kts 301°
2026-04-26 04:48 12.69086 70.95261 37898 ft 491 kts 301°
2026-04-26 04:49 12.73104 70.89668 37903 ft 490 kts 301°
2026-04-26 04:49 12.77146 70.84039 37908 ft 491 kts 301°
2026-04-26 04:50 12.81186 70.78409 37909 ft 490 kts 301°
2026-04-26 04:50 12.85225 70.72777 37901 ft 490 kts 301°
2026-04-26 04:51 12.89263 70.67142 37908 ft 490 kts 301°
2026-04-26 04:51 12.93267 70.61551 37909 ft 490 kts 301°
2026-04-26 04:52 12.97295 70.55922 37910 ft 490 kts 301°
2026-04-26 04:52 13.01326 70.50285 37889 ft 490 kts 301°
2026-04-26 04:53 13.05352 70.44652 37901 ft 490 kts 301°
2026-04-26 04:53 13.09374 70.39006 37918 ft 490 kts 301°
2026-04-26 04:54 13.13361 70.33390 37914 ft 490 kts 301°
2026-04-26 04:54 13.17369 70.27739 37895 ft 490 kts 301°
2026-04-26 04:55 13.21376 70.22087 37898 ft 490 kts 301°
2026-04-26 04:55 13.25383 70.16433 37917 ft 490 kts 301°
2026-04-26 04:56 13.29363 70.10813 37903 ft 490 kts 301°
2026-04-26 04:56 13.33369 70.05154 37905 ft 490 kts 301°
2026-04-26 04:57 13.37375 69.99491 37904 ft 490 kts 301°
2026-04-26 04:57 13.41379 69.93826 37910 ft 490 kts 301°
2026-04-26 04:58 13.45382 69.88160 37907 ft 490 kts 301°
2026-04-26 04:58 13.49357 69.82530 37904 ft 490 kts 301°
2026-04-26 04:59 13.53356 69.76861 37906 ft 490 kts 301°
2026-04-26 04:59 13.57355 69.71188 37904 ft 490 kts 301°
2026-04-26 05:00 13.61352 69.65516 37908 ft 490 kts 301°
2026-04-26 05:00 13.65323 69.59877 37907 ft 490 kts 301°
2026-04-26 05:01 13.69319 69.54197 37915 ft 490 kts 301°
2026-04-26 05:01 13.73318 69.48509 37907 ft 491 kts 301°
2026-04-26 05:02 13.77323 69.42809 37909 ft 492 kts 301°
2026-04-26 05:02 13.81305 69.37139 37907 ft 493 kts 301°
2026-04-26 05:03 13.85319 69.31420 37907 ft 493 kts 301°
2026-04-26 05:03 13.89335 69.25692 37907 ft 494 kts 301°
2026-04-26 05:04 13.93353 69.19958 37907 ft 494 kts 301°
2026-04-26 05:04 13.97369 69.14224 37907 ft 494 kts 301°
2026-04-26 05:05 14.01358 69.08522 37914 ft 493 kts 302°
2026-04-26 05:05 14.05360 69.02798 37904 ft 492 kts 301°
2026-04-26 05:06 14.09355 68.97086 37906 ft 491 kts 302°
2026-04-26 05:06 14.13364 68.91408 37905 ft 489 kts 302°
2026-04-26 05:07 14.17347 68.85784 37907 ft 488 kts 302°
2026-04-26 05:07 14.21340 68.80133 37905 ft 487 kts 302°
2026-04-26 05:08 14.25322 68.74487 37904 ft 486 kts 302°
2026-04-26 05:08 14.29297 68.68845 37910 ft 486 kts 302°
2026-04-26 05:09 14.33240 68.63244 37910 ft 486 kts 302°
2026-04-26 05:09 14.37213 68.57597 37910 ft 486 kts 302°
2026-04-26 05:10 14.41186 68.51947 37909 ft 486 kts 302°
2026-04-26 05:10 14.45158 68.46295 37907 ft 487 kts 302°
2026-04-26 05:11 14.49102 68.40678 37907 ft 487 kts 302°
2026-04-26 05:11 14.53073 68.35019 37907 ft 487 kts 302°
2026-04-26 05:12 14.57043 68.29357 37907 ft 487 kts 302°
2026-04-26 05:12 14.61012 68.23694 37912 ft 486 kts 302°
2026-04-26 05:13 14.64949 68.18071 37902 ft 486 kts 302°
2026-04-26 05:13 14.68906 68.12416 37907 ft 485 kts 302°
2026-04-26 05:14 14.72859 68.06763 37906 ft 485 kts 302°
2026-04-26 05:14 14.76806 68.01113 37907 ft 485 kts 302°
2026-04-26 05:15 14.80751 67.95463 37910 ft 485 kts 302°
2026-04-26 05:15 14.84670 67.89847 37909 ft 485 kts 302°
2026-04-26 05:16 14.88615 67.84188 37912 ft 485 kts 302°
2026-04-26 05:16 14.92559 67.78528 37906 ft 485 kts 302°
2026-04-26 05:17 14.96503 67.72864 37909 ft 486 kts 302°
2026-04-26 05:17 15.00421 67.67231 37910 ft 486 kts 302°
2026-04-26 05:18 15.04367 67.61557 37911 ft 486 kts 302°
2026-04-26 05:18 15.08313 67.55876 37908 ft 486 kts 302°
2026-04-26 05:19 15.12257 67.50194 37909 ft 486 kts 302°
2026-04-26 05:19 15.16178 67.44542 37918 ft 487 kts 302°
2026-04-26 05:20 15.20130 67.38841 37911 ft 487 kts 302°
2026-04-26 05:20 15.24079 67.33140 37909 ft 487 kts 302°
2026-04-26 05:21 15.28030 67.27433 37910 ft 488 kts 302°
2026-04-26 05:21 15.31978 67.21724 37913 ft 488 kts 302°
2026-04-26 05:22 15.35899 67.16050 37908 ft 488 kts 302°
2026-04-26 05:22 15.39849 67.10331 37910 ft 488 kts 302°
2026-04-26 05:23 15.43798 67.04609 37909 ft 488 kts 302°
2026-04-26 05:23 15.47746 66.98882 37914 ft 488 kts 302°
2026-04-26 05:24 15.51665 66.93193 37908 ft 488 kts 302°
2026-04-26 05:24 15.55608 66.87463 37910 ft 488 kts 303°
2026-04-26 05:25 15.59554 66.81737 37909 ft 488 kts 303°
2026-04-26 05:25 15.63543 66.76038 37906 ft 488 kts 303°
2026-04-26 05:26 15.67545 66.70345 37910 ft 488 kts 303°
2026-04-26 05:26 15.71510 66.64688 37909 ft 488 kts 303°
2026-04-26 05:27 15.75499 66.58982 37907 ft 488 kts 303°
2026-04-26 05:27 15.79485 66.53272 37903 ft 488 kts 304°
2026-04-26 05:28 15.83469 66.47561 37903 ft 489 kts 304°
2026-04-26 05:28 15.87429 66.41881 37900 ft 489 kts 304°
2026-04-26 05:29 15.91415 66.36160 37901 ft 489 kts 304°
2026-04-26 05:29 15.95401 66.30435 37899 ft 489 kts 304°
2026-04-26 05:30 15.99385 66.24707 37898 ft 489 kts 304°
2026-04-26 05:30 16.03340 66.19017 37903 ft 489 kts 304°
2026-04-26 05:31 16.07326 66.13277 37896 ft 490 kts 304°
2026-04-26 05:31 16.11311 66.07534 37895 ft 490 kts 304°
2026-04-26 05:32 16.15298 66.01785 37898 ft 490 kts 304°
2026-04-26 05:32 16.19257 65.96070 37900 ft 490 kts 304°
2026-04-26 05:33 16.23239 65.90319 37898 ft 490 kts 304°
2026-04-26 05:33 16.27221 65.84562 37900 ft 490 kts 304°
2026-04-26 05:34 16.31204 65.78800 37902 ft 490 kts 305°
2026-04-26 05:34 16.35187 65.73036 37902 ft 490 kts 304°
2026-04-26 05:35 16.39141 65.67305 37900 ft 491 kts 304°
2026-04-26 05:35 16.43121 65.61534 37903 ft 490 kts 304°
2026-04-26 05:36 16.47098 65.55762 37902 ft 490 kts 305°
2026-04-26 05:36 16.51069 65.49993 37903 ft 490 kts 305°
2026-04-26 05:37 16.55013 65.44260 37911 ft 490 kts 305°
2026-04-26 05:37 16.58980 65.38488 37906 ft 489 kts 305°
2026-04-26 05:38 16.62942 65.32719 37908 ft 489 kts 305°
2026-04-26 05:38 16.66898 65.26955 37916 ft 489 kts 305°
2026-04-26 05:39 16.70824 65.21229 37908 ft 488 kts 305°
2026-04-26 05:39 16.74770 65.15469 37916 ft 487 kts 305°
2026-04-26 05:40 16.78708 65.09717 37911 ft 487 kts 305°
2026-04-26 05:40 16.82637 65.03972 37924 ft 486 kts 305°
2026-04-26 05:41 16.86567 64.98220 37919 ft 486 kts 305°
2026-04-26 05:41 16.90469 64.92507 37913 ft 487 kts 305°
2026-04-26 05:42 16.94398 64.86748 37919 ft 487 kts 305°
2026-04-26 05:42 16.98325 64.80988 37915 ft 487 kts 305°
2026-04-26 05:43 17.02257 64.75216 37916 ft 488 kts 305°
2026-04-26 05:43 17.06162 64.69478 37924 ft 488 kts 305°
2026-04-26 05:44 17.10094 64.63695 37919 ft 488 kts 305°
2026-04-26 05:44 17.14021 64.57914 37914 ft 488 kts 305°
2026-04-26 05:45 17.17950 64.52127 37923 ft 488 kts 305°
2026-04-26 05:45 17.21849 64.46376 37921 ft 488 kts 305°
2026-04-26 05:46 17.25774 64.40583 37925 ft 488 kts 305°
2026-04-26 05:46 17.29711 64.34793 37925 ft 488 kts 306°
2026-04-26 05:47 17.33745 64.29071 37924 ft 489 kts 307°
2026-04-26 05:47 17.37777 64.23404 37933 ft 488 kts 307°
2026-04-26 05:48 17.41822 64.17690 37925 ft 488 kts 307°
2026-04-26 05:48 17.45852 64.11972 37927 ft 488 kts 307°
2026-04-26 05:49 17.51888 64.03389 37930 ft 487 kts 307°
2026-04-26 05:50 17.55877 63.97712 37926 ft 487 kts 307°
2026-04-26 05:50 17.59894 63.91990 37926 ft 487 kts 307°
2026-04-26 05:51 17.63907 63.86269 37930 ft 487 kts 307°
2026-04-26 05:51 17.67917 63.80549 37927 ft 486 kts 307°
2026-04-26 05:52 17.71920 63.74832 37929 ft 486 kts 307°
2026-04-26 05:52 17.75890 63.69159 37935 ft 486 kts 307°
2026-04-26 05:53 17.79886 63.63443 37930 ft 485 kts 307°
2026-04-26 05:53 17.83870 63.57740 37934 ft 485 kts 307°
2026-04-26 05:54 17.87852 63.52033 37942 ft 484 kts 307°
2026-04-26 05:54 17.91798 63.46374 37934 ft 483 kts 307°
2026-04-26 05:55 17.95764 63.40683 37936 ft 482 kts 307°
2026-04-26 05:55 17.99716 63.35005 37934 ft 481 kts 307°
2026-04-26 05:56 18.03657 63.29339 37939 ft 480 kts 307°
2026-04-26 05:56 18.07590 63.23680 37939 ft 479 kts 307°
2026-04-26 05:57 18.11493 63.18058 37937 ft 479 kts 307°
2026-04-26 05:57 18.15414 63.12405 37935 ft 478 kts 308°
2026-04-26 05:58 18.19324 63.06763 37938 ft 476 kts 308°
2026-04-26 05:58 18.23219 63.01139 37938 ft 475 kts 308°
2026-04-26 05:59 18.27076 62.95565 37939 ft 474 kts 308°
2026-04-26 05:59 18.30948 62.89963 37939 ft 473 kts 308°
2026-04-26 06:00 18.34816 62.84364 37939 ft 473 kts 308°
2026-04-26 06:00 18.38681 62.78762 37946 ft 472 kts 308°
2026-04-26 06:01 18.42514 62.73202 37941 ft 472 kts 308°
2026-04-26 06:01 18.46369 62.67606 37939 ft 472 kts 308°
2026-04-26 06:02 18.50224 62.62004 37937 ft 472 kts 308°
2026-04-26 06:02 18.54075 62.56401 37937 ft 472 kts 308°
2026-04-26 06:03 18.57926 62.50795 37942 ft 472 kts 309°
2026-04-26 06:03 18.61731 62.45218 37941 ft 472 kts 308°
2026-04-26 06:04 18.65538 62.39590 37942 ft 471 kts 308°
2026-04-26 06:04 18.69338 62.33964 37939 ft 470 kts 308°
2026-04-26 06:05 18.73131 62.28350 37946 ft 470 kts 308°
2026-04-26 06:05 18.76892 62.22780 37945 ft 469 kts 308°
2026-04-26 06:06 18.80676 62.17172 37944 ft 469 kts 308°
2026-04-26 06:06 18.84454 62.11568 37942 ft 468 kts 308°
2026-04-26 06:07 18.88226 62.05968 37950 ft 468 kts 308°
2026-04-26 06:07 18.91970 62.00405 37944 ft 468 kts 308°
2026-04-26 06:08 18.95735 61.94804 37942 ft 467 kts 308°
2026-04-26 06:08 18.99495 61.89206 37938 ft 467 kts 308°
2026-04-26 06:09 19.03248 61.83614 37947 ft 466 kts 308°
2026-04-26 06:09 19.06971 61.78063 37941 ft 466 kts 308°
2026-04-26 06:10 19.10712 61.72477 37939 ft 465 kts 308°
2026-04-26 06:10 19.14450 61.66894 37943 ft 465 kts 308°
2026-04-26 06:11 19.18178 61.61318 37942 ft 464 kts 308°
2026-04-26 06:11 19.21903 61.55742 37942 ft 464 kts 308°
2026-04-26 06:12 19.25598 61.50207 37940 ft 463 kts 308°
2026-04-26 06:12 19.29316 61.44632 37946 ft 463 kts 308°
2026-04-26 06:13 19.33031 61.39057 37943 ft 464 kts 308°
2026-04-26 06:13 19.36745 61.33478 37941 ft 464 kts 308°
2026-04-26 06:14 19.40432 61.27933 37942 ft 463 kts 308°
2026-04-26 06:14 19.44140 61.22353 37942 ft 463 kts 308°
2026-04-26 06:15 19.47840 61.16779 37942 ft 462 kts 308°
2026-04-26 06:15 19.51537 61.11205 37943 ft 462 kts 308°
2026-04-26 06:16 19.55206 61.05668 37945 ft 462 kts 308°
2026-04-26 06:16 19.58901 61.00087 37948 ft 462 kts 308°
2026-04-26 06:17 19.62588 60.94512 37941 ft 462 kts 308°
2026-04-26 06:17 19.66272 60.88937 37942 ft 462 kts 308°
2026-04-26 06:18 19.69934 60.83391 37947 ft 462 kts 308°
2026-04-26 06:18 19.73618 60.77804 37942 ft 462 kts 308°
2026-04-26 06:19 19.77299 60.72219 37941 ft 462 kts 308°
2026-04-26 06:19 19.80980 60.66627 37942 ft 462 kts 308°
2026-04-26 06:20 19.84659 60.61033 37942 ft 462 kts 308°
2026-04-26 06:20 19.88306 60.55482 37944 ft 461 kts 308°
2026-04-26 06:21 19.91972 60.49896 37959 ft 462 kts 308°
2026-04-26 06:21 19.93818 60.47084 38189 ft 463 kts 308°
2026-04-26 06:21 19.95654 60.44281 38632 ft 460 kts 308°
2026-04-26 06:21 19.97473 60.41503 39056 ft 456 kts 308°
2026-04-26 06:22 19.99282 60.38741 39394 ft 455 kts 307°
2026-04-26 06:22 20.01085 60.35988 39653 ft 454 kts 307°
2026-04-26 06:22 20.02925 60.33310 39824 ft 454 kts 312°
2026-04-26 06:23 20.07464 60.28655 39931 ft 453 kts 323°
2026-04-26 06:23 20.12697 60.25000 39938 ft 448 kts 330°
2026-04-26 06:24 20.18039 60.21681 39942 ft 442 kts 330°
2026-04-26 06:24 20.23311 60.18391 39938 ft 443 kts 330°
2026-04-26 06:25 20.28617 60.15040 39949 ft 444 kts 330°
2026-04-26 06:25 20.33932 60.11665 39947 ft 446 kts 329°
2026-04-26 06:26 20.39271 60.08269 39939 ft 447 kts 329°
2026-04-26 06:26 20.43716 60.05440 39939 ft 448 kts 329°
2026-04-26 06:27 20.49943 60.01475 39938 ft 449 kts 329°
2026-04-26 06:27 20.55308 59.98056 39938 ft 450 kts 329°
2026-04-26 06:28 20.60681 59.94630 39939 ft 450 kts 329°
2026-04-26 06:28 20.65141 59.91783 39933 ft 449 kts 329°
2026-04-26 06:29 20.71372 59.87802 39936 ft 449 kts 329°
2026-04-26 06:29 20.75853 59.84937 39934 ft 447 kts 329°
2026-04-26 06:30 20.81150 59.81547 39932 ft 446 kts 329°
2026-04-26 06:30 20.86471 59.78139 39933 ft 445 kts 329°
2026-04-26 06:31 20.92632 59.74189 39930 ft 444 kts 329°
2026-04-26 06:31 20.97064 59.71345 39927 ft 443 kts 329°
2026-04-26 06:32 21.02309 59.67977 39929 ft 442 kts 329°
2026-04-26 06:32 21.07585 59.64578 39926 ft 442 kts 329°
2026-04-26 06:33 21.12849 59.61180 39932 ft 442 kts 329°
2026-04-26 06:33 21.18112 59.57779 39927 ft 441 kts 329°
2026-04-26 06:34 21.23369 59.54382 39922 ft 441 kts 329°
2026-04-26 06:34 21.28585 59.51010 39920 ft 441 kts 329°
2026-04-26 06:35 21.33831 59.47621 39919 ft 440 kts 329°
2026-04-26 06:35 21.39080 59.44225 39917 ft 440 kts 329°
2026-04-26 06:36 21.44326 59.40827 39920 ft 440 kts 329°
2026-04-26 06:36 21.49532 59.37450 39918 ft 440 kts 329°
2026-04-26 06:37 21.54772 59.34049 39920 ft 440 kts 329°
2026-04-26 06:37 21.60016 59.30644 39919 ft 440 kts 329°
2026-04-26 06:38 21.65260 59.27241 39920 ft 440 kts 329°
2026-04-26 06:38 21.70460 59.23870 39929 ft 440 kts 329°
2026-04-26 06:39 21.75702 59.20466 39932 ft 440 kts 329°
2026-04-26 06:39 21.80938 59.17061 39932 ft 440 kts 329°
2026-04-26 06:40 21.86074 59.13719 39940 ft 440 kts 329°
2026-04-26 06:40 21.91283 59.10326 39936 ft 440 kts 329°
2026-04-26 06:41 21.96516 59.06915 39940 ft 440 kts 329°
2026-04-26 06:41 22.01747 59.03501 39942 ft 440 kts 329°
2026-04-26 06:42 22.06977 59.00085 39945 ft 439 kts 329°
2026-04-26 06:42 22.12164 58.96694 39944 ft 439 kts 329°
2026-04-26 06:43 22.17380 58.93281 39943 ft 439 kts 329°
2026-04-26 06:43 22.22595 58.89866 39947 ft 438 kts 329°
2026-04-26 06:44 22.27805 58.86451 39949 ft 438 kts 329°
2026-04-26 06:44 22.33015 58.83032 39956 ft 438 kts 329°
2026-04-26 06:45 22.38186 58.79633 39953 ft 438 kts 329°
2026-04-26 06:45 22.43393 58.76208 39947 ft 438 kts 329°
2026-04-26 06:46 22.48601 58.72779 39952 ft 438 kts 329°
2026-04-26 06:46 22.53804 58.69349 39945 ft 438 kts 328°
2026-04-26 06:47 22.58964 58.65945 39963 ft 437 kts 328°
2026-04-26 06:47 22.64155 58.62517 39950 ft 437 kts 328°
2026-04-26 06:48 22.69340 58.59094 39948 ft 436 kts 328°
2026-04-26 06:48 22.74519 58.55676 39943 ft 436 kts 328°
2026-04-26 06:49 22.79693 58.52257 39942 ft 435 kts 328°
2026-04-26 06:49 22.84826 58.48860 39947 ft 435 kts 328°
2026-04-26 06:50 22.89986 58.45442 39943 ft 434 kts 328°
2026-04-26 06:50 22.95136 58.42027 39940 ft 434 kts 328°
2026-04-26 06:51 23.00290 58.38606 39940 ft 434 kts 328°
2026-04-26 06:51 23.07982 58.33489 39942 ft 434 kts 328°
2026-04-26 06:52 23.13132 58.30052 39920 ft 434 kts 328°
2026-04-26 06:52 23.18281 58.26612 39932 ft 434 kts 328°
2026-04-26 06:53 23.23422 58.23175 39923 ft 434 kts 328°
2026-04-26 06:53 23.28528 58.19757 39918 ft 434 kts 328°
2026-04-26 06:54 23.33662 58.16319 39900 ft 433 kts 327°
2026-04-26 06:54 23.38524 58.12504 39905 ft 431 kts 318°
2026-04-26 06:55 23.42703 58.07815 39900 ft 432 kts 309°
2026-04-26 06:55 23.46213 58.02530 39912 ft 434 kts 307°
2026-04-26 06:56 23.49674 57.97135 39891 ft 435 kts 307°
2026-04-26 06:56 23.53165 57.91753 39907 ft 434 kts 307°
2026-04-26 06:57 23.56663 57.86392 39895 ft 433 kts 307°
2026-04-26 06:57 23.60167 57.81061 39906 ft 432 kts 308°
2026-04-26 06:58 23.63839 57.75946 39890 ft 431 kts 310°
2026-04-26 06:58 23.67559 57.70828 39890 ft 430 kts 309°
2026-04-26 06:59 23.71245 57.65682 39903 ft 430 kts 309°
2026-04-26 06:59 23.74917 57.60529 39895 ft 430 kts 309°
2026-04-26 07:00 23.78565 57.55411 39898 ft 430 kts 309°
2026-04-26 07:00 23.82236 57.50266 39895 ft 429 kts 309°
2026-04-26 07:01 23.85906 57.45116 39895 ft 430 kts 309°
2026-04-26 07:01 23.89574 57.39961 39893 ft 430 kts 309°
2026-04-26 07:02 23.93239 57.34805 39908 ft 429 kts 309°
2026-04-26 07:02 23.96875 57.29682 39898 ft 430 kts 309°
2026-04-26 07:03 24.00537 57.24517 39901 ft 429 kts 309°
2026-04-26 07:03 24.04194 57.19355 39900 ft 429 kts 308°
2026-04-26 07:04 24.07847 57.14192 39898 ft 429 kts 308°
2026-04-26 07:04 24.11473 57.09063 39893 ft 429 kts 308°
2026-04-26 07:05 24.15118 57.03900 39901 ft 429 kts 308°
2026-04-26 07:05 24.18761 56.98734 39898 ft 429 kts 308°
2026-04-26 07:06 24.22407 56.93560 39904 ft 429 kts 308°
2026-04-26 07:06 24.26040 56.88384 39891 ft 429 kts 308°
2026-04-26 07:07 24.29642 56.83241 39852 ft 426 kts 308°
2026-04-26 07:07 24.31430 56.80686 39577 ft 418 kts 308°
2026-04-26 07:07 24.33186 56.78175 39058 ft 415 kts 308°
2026-04-26 07:08 24.34952 56.75651 38190 ft 419 kts 308°
2026-04-26 07:08 24.36736 56.73096 37096 ft 425 kts 308°
2026-04-26 07:08 24.38548 56.70502 36034 ft 432 kts 307°
2026-04-26 07:08 24.40383 56.67873 35056 ft 436 kts 307°
2026-04-26 07:09 24.42234 56.65222 34069 ft 440 kts 307°
2026-04-26 07:09 24.44127 56.62629 32881 ft 445 kts 310°
2026-04-26 07:09 24.46259 56.60100 31332 ft 458 kts 311°
2026-04-26 07:09 24.48493 56.57520 29763 ft 474 kts 310°
2026-04-26 07:10 24.55245 56.49713 27197 ft 450 kts 310°
2026-04-26 07:11 24.59453 56.44800 24911 ft 436 kts 310°
2026-04-26 07:11 24.61488 56.42413 23770 ft 432 kts 310°
2026-04-26 07:11 24.63530 56.40018 22507 ft 427 kts 310°
2026-04-26 07:11 24.65550 56.37650 21301 ft 421 kts 310°
2026-04-26 07:12 24.67541 56.35318 20153 ft 416 kts 310°
2026-04-26 07:12 24.69526 56.33026 19023 ft 412 kts 314°
2026-04-26 07:12 24.71777 56.31066 17860 ft 414 kts 325°
2026-04-26 07:12 24.74299 56.29569 16759 ft 411 kts 334°
2026-04-26 07:13 24.76978 56.28530 15715 ft 407 kts 343°
2026-04-26 07:13 24.79680 56.27784 15068 ft 392 kts 344°
2026-04-26 07:13 24.82275 56.27048 14474 ft 378 kts 343°
2026-04-26 07:13 24.84753 56.26315 13914 ft 370 kts 342°
2026-04-26 07:14 24.87078 56.25146 13278 ft 372 kts 323°
2026-04-26 07:14 24.88975 56.23161 12705 ft 382 kts 306°
2026-04-26 07:14 24.90351 56.20668 12090 ft 380 kts 296°
2026-04-26 07:14 24.91595 56.18106 11486 ft 378 kts 297°
2026-04-26 07:15 24.92845 56.15572 10974 ft 370 kts 297°
2026-04-26 07:15 24.94023 56.13243 10794 ft 331 kts 297°
2026-04-26 07:15 24.95106 56.11113 10633 ft 304 kts 298°
2026-04-26 07:15 24.96104 56.09161 10527 ft 284 kts 298°
2026-04-26 07:16 24.97023 56.07280 10406 ft 274 kts 291°
2026-04-26 07:16 24.97514 56.05316 10323 ft 267 kts 278°
2026-04-26 07:16 24.97746 56.03278 10215 ft 271 kts 275°
2026-04-26 07:16 24.97929 56.01195 10115 ft 275 kts 275°
2026-04-26 07:17 24.98112 55.99088 9907 ft 278 kts 275°
2026-04-26 07:17 24.98304 55.96960 9579 ft 279 kts 275°
2026-04-26 07:17 24.98501 55.94849 9249 ft 274 kts 275°
2026-04-26 07:17 24.98700 55.92774 8919 ft 269 kts 276°
2026-04-26 07:18 24.98898 55.90741 8645 ft 265 kts 276°
2026-04-26 07:18 24.99093 55.88750 8352 ft 265 kts 276°
2026-04-26 07:18 24.99291 55.86734 8035 ft 265 kts 276°
2026-04-26 07:18 24.99490 55.84716 7771 ft 263 kts 276°
2026-04-26 07:19 24.99715 55.82736 7427 ft 255 kts 282°
2026-04-26 07:19 25.00424 55.80989 7128 ft 246 kts 301°
2026-04-26 07:19 25.01341 55.79424 6757 ft 238 kts 300°
2026-04-26 07:19 25.02204 55.77899 6286 ft 232 kts 302°
2026-04-26 07:20 25.03066 55.76436 5810 ft 222 kts 302°
2026-04-26 07:20 25.03883 55.75025 5371 ft 224 kts 303°
2026-04-26 07:20 25.04700 55.73582 5186 ft 216 kts 302°
2026-04-26 07:20 25.05516 55.72125 5131 ft 230 kts 303°
2026-04-26 07:21 25.06357 55.70615 4734 ft 234 kts 302°
2026-04-26 07:21 25.07204 55.69088 4222 ft 232 kts 303°
2026-04-26 07:21 25.08040 55.67579 3724 ft 229 kts 302°
2026-04-26 07:21 25.08865 55.66090 3242 ft 225 kts 302°
2026-04-26 07:22 25.09651 55.64671 2710 ft 209 kts 302°
2026-04-26 07:22 25.10382 55.63353 2259 ft 192 kts 302°
2026-04-26 07:22 25.11050 55.62146 2060 ft 182 kts 303°
2026-04-26 07:22 25.11702 55.60970 2051 ft 180 kts 302°
2026-04-26 07:23 25.12333 55.59827 2007 ft 170 kts 302°
2026-04-26 07:23 25.12947 55.58720 2016 ft 169 kts 302°
2026-04-26 07:23 25.13562 55.57611 2008 ft 170 kts 303°
2026-04-26 07:23 25.14181 55.56493 2014 ft 170 kts 302°
2026-04-26 07:24 25.14784 55.55403 2004 ft 163 kts 303°
2026-04-26 07:24 25.15368 55.54347 1993 ft 160 kts 303°
2026-04-26 07:24 25.15929 55.53337 2001 ft 158 kts 303°
2026-04-26 07:24 25.16196 55.52854 2017 ft 158 kts 302°
2026-04-26 07:25 25.16745 55.51856 1988 ft 148 kts 303°
2026-04-26 07:25 25.17269 55.50909 1974 ft 140 kts 303°
2026-04-26 07:25 25.17775 55.49998 2010 ft 140 kts 303°
2026-04-26 07:25 25.18290 55.49067 1965 ft 145 kts 304°
2026-04-26 07:26 25.18818 55.48112 1767 ft 144 kts 303°
2026-04-26 07:26 25.19327 55.47192 1610 ft 138 kts 303°
2026-04-26 07:26 25.19828 55.46285 1406 ft 140 kts 305°
2026-04-26 07:26 25.20333 55.45368 1260 ft 139 kts 304°
2026-04-26 07:27 25.20827 55.44443 1051 ft 141 kts 303°
2026-04-26 07:27 25.21318 55.43522 900 ft 141 kts 303°
2026-04-26 07:27 25.21851 55.42601 748 ft 144 kts 303°
2026-04-26 07:27 25.22372 55.41677 538 ft 139 kts 302°
2026-04-26 07:28 25.22897 55.40749 390 ft 145 kts 299°
2026-04-26 07:28 25.23408 55.39811 142 ft 139 kts 301°
2026-04-26 07:28 25.23891 55.38936 36 ft 125 kts 301°
2026-04-26 07:28 25.24258 55.38282 33 ft 73 kts 302°
2026-04-26 07:29 25.24423 55.37973 27 ft 20 kts 290°
2026-04-26 07:29 25.24402 55.37883 26 ft 17 kts 229°
2026-04-26 07:29 25.24344 55.37777 41 ft 17 kts 276°
2026-04-26 07:29 25.24354 55.37748 41 ft 0 kts 300°
2026-04-26 07:30 25.24377 55.37705 40 ft 17 kts 301°
2026-04-26 07:31 25.24461 55.37553 38 ft 26 kts 302°
2026-04-26 07:31 25.24559 55.37378 35 ft 27 kts 301°
2026-04-26 07:31 25.24656 55.37201 31 ft 27 kts 301°
2026-04-26 07:31 25.24756 55.37023 29 ft 28 kts 301°
2026-04-26 07:32 25.24846 55.36835 28 ft 28 kts 287°
2026-04-26 07:32 25.24908 55.36632 26 ft 28 kts 298°
2026-04-26 07:32 25.25006 55.36448 29 ft 22 kts 295°
2026-04-26 07:32 25.24955 55.36348 30 ft 17 kts 212°
2026-04-26 07:33 25.24877 55.36295 29 ft 0 kts 211°